sat.trackr.live / text

‹ back to catalog

ONEWEB-0230

NORAD 48769 · 2021-045C

PAYLOAD ACTIVE UNKNOWN

§ Identity

Operator
Country
UK
Launch date
2021-05-28
Launch site
VOSTO
Launch vehicle
Mass (kg)
RCS (m²)

Purposes: comms

External: N2YO · Heavens-Above · Gunter

§ Orbital elements

Epoch: 2026-09-19T16:53:46.108896Z

Period
109.46 min
Inclination
87.8991°
Eccentricity
0.0002134
Mean motion
13.15548267 rev/d
Perigee alt
1,200.2 km
Apogee alt
1,203.4 km
Semi-major
7,579.9 km
B*
3.0268e-4
RAAN
240.3579°
Arg perigee
85.9514°
Mean anomaly
274.1861°
Rev number
25,709

§ Raw data

ONEWEB-02301 48769U 21045C   26262.70400589  .00000127  00000+0  30268-3 0  99982 48769  87.8991 240.3579 0002134  85.9514 274.1861 13.15548267257094

JSON: /api/v1/satellites/48769 · /tle

For live sub-satellite position, see the globe view (requires WebGL).

§ Visibility from observer

Set your observer location to see the next 7 days of passes ≥ 10°. The values pass through the URL so the page stays shareable.

No JS? Fill the form by hand. The geolocation button needs JavaScript.